{"data":{"norad_id":62433,"epoch":"2026-05-24T22:58:57.679392Z","epoch_age_seconds":74866,"freshness":"FRESH","line1":"1 62433U 24251B   26144.95761203  .00013871  00000+0  47946-3 0  9994","line2":"2 62433  53.1593 341.1688 0001059  86.3016 273.8106 15.30208590 79620","mean_motion":15.3020859,"eccentricity":0.0001059,"inclination_deg":53.1593,"raan_deg":341.1688,"arg_perigee_deg":86.3016,"mean_anomaly_deg":273.8106,"bstar":0.00047946,"rev_number":7962,"period_min":94.10481743538,"perigee_km":474.46365407964,"apogee_km":475.91518861569,"semimajor_km":6853.3264213477,"source":"CELESTRAK","updated_at":"2026-05-25T13:38:19.656871Z"}}